Flag for U.S.A. Weather past 2 weeks in Santa Clara, California, U.S.A.

Now
59 °F

Clear.


Feels Like: 58 °F
Forecast: 61 / 79 °F
Wind: 8 mph from South

Location: San Jose International Airport

Current Time: Sep 1, 2015 at 7:40:01 AM

Latest Report: Sep 1, 2015 at 6:53 AM


Visibility: 10 mi

Pressure: 29.88 "Hg

Humidity: 87%

Dew point: 55 °F

Location of Santa ClaraLocation

Historic Weather in Santa Clara — Graph

°F

Santa Clara temperature yesterday

Maximum temperature yesterday: 84 °F (at 1:53 PM)
Minimum temperature yesterday: 60 °F (at 4:53 AM)
Average temperature yesterday: 69 °F

Past Weeks' High & Low Weather Summary

 TemperatureHumidityPressure
High94 °F (Aug 28, 2:53 PM)94% (Aug 29, 4:00 AM)30.06 "Hg (Aug 29, 4:00 AM)
Low59 °F (Aug 18, 5:53 AM)18% (Aug 27, 2:53 PM)29.79 "Hg (Aug 17, 3:53 PM)
Average70 °F67%29.93 "Hg
* Reported Aug 17 5:53 AM — Sep 1 5:53 AM, Santa Clara, Weather by CustomWeather, © 2015

Note: Actual official high and low records may vary slightly from our data, if they occured in-between our weather recording intervals... More about our weather records

Advertising

Santa Clara weather history for previous 24 hours

 ConditionsComfort  
Time TempWeatherWind HumidityBarometerVisibility
5:53 AM
Tue, Sep 1
59 °FClear.5 mph87%29.87 "Hg10 mi
4:53 AM60 °FClear.3 mph86%29.86 "Hg10 mi
3:53 AM61 °FClear.No wind83%29.86 "Hg10 mi
2:53 AM60 °FClear.5 mph86%29.86 "Hg10 mi
1:53 AM62 °FClear.No wind83%29.87 "Hg10 mi
12:53 AM62 °FClear.No wind83%29.88 "Hg10 mi
11:53 PM
Mon, Aug 31
62 °FClear.3 mph80%29.88 "Hg10 mi
10:53 PM63 °FClear.3 mph81%29.88 "Hg10 mi
9:53 PM65 °FClear.6 mph76%29.89 "Hg10 mi
8:53 PM65 °FClear.10 mph76%29.88 "Hg10 mi
7:53 PM68 °FPassing clouds.13 mph65%29.86 "Hg10 mi
6:53 PM71 °FPassing clouds.16 mph63%29.85 "Hg10 mi
5:53 PM77 °FPassing clouds.14 mph54%29.85 "Hg10 mi
4:53 PM80 °FPassing clouds.20 mph49%29.84 "Hg10 mi
3:53 PM82 °FPassing clouds.15 mph44%29.85 "Hg10 mi
2:53 PM83 °FPassing clouds.13 mph38%29.87 "Hg10 mi
1:53 PM84 °FPassing clouds.9 mph32%29.88 "Hg10 mi
12:53 PM81 °FPassing clouds.3 mph39%29.90 "Hg10 mi
11:53 AM78 °FPassing clouds.No wind42%29.92 "Hg10 mi
10:53 AM73 °FPassing clouds.No wind51%29.94 "Hg10 mi
9:53 AM69 °FPassing clouds.No wind59%29.94 "Hg10 mi
8:53 AM65 °FSunny.No wind68%29.95 "Hg10 mi
7:53 AM62 °FSunny.7 mph75%29.94 "Hg10 mi
Weather by CustomWeather, © 2015

See weather overviewHow to use our weather pages